Probability
0 3 6 10 13 13 16 19 19 23 19 19 19 19 19 19 16 10 10 13 10 13 13 6 10 6 3 3 0 0 0 0 0 0 3 6 6 3 0 3 0 0 6
0 3 6 19 16 16 16 16 19 26 19 19 19 19 16 13 10 6 10 6 13 16 13 10 10 6 3 3 3 0 3 0 0 0 0 6 6 6 0 3 6 0 3
0 3 6 16 19 19 16 16 19 23 19 19 19 16 10 10 10 6 6 10 13 13 13 3 6 6 3 3 3 3 0 0 0 0 0 0 3 3 3 6 6 3 3
0 3 6 16 26 19 19 16 19 19 19 19 16 13 10 10 10 10 10 10 10 6 3 3 6 3 3 3 0 0 0 0 0 0 0 0 0 3 0 6 3 3 0
3 6 6 19 26 26 23 19 16 23 19 19 16 13 10 10 10 10 10 10 10 6 3 3 3 3 0 0 0 0 0 0 0 0 0 0 0 0 3 3 6 3 3
3 6 6 19 26 26 23 23 23 23 19 19 16 13 13 10 10 13 10 10 6 6 3 3 3 0 0 0 0 0 0 0 0 0 0 0 0 3 3 3 3 3 3
3 6 6 13 23 26 29 23 23 19 13 16 13 16 16 16 13 13 10 6 6 6 6 3 3 0 0 0 0 0 0 0 0 0 0 0 0 3 3 0 6 3 3
3 6 6 10 13 19 23 23 19 16 10 13 10 10 13 13 13 10 6 10 6 6 6 6 0 0 0 0 0 0 0 0 0 0 0 0 0 0 0 0 0 6 3
3 3 6 10 10 10 10 13 13 16 13 10 10 6 6 6 6 6 6 10 6 6 3 3 0 0 0 0 0 0 0 0 0 0 0 0 0 0 0 0 0 0 0
3 3 6 6 10 10 10 10 10 6 6 3 3 3 3 0 6 3 6 6 6 3 3 3 0 0 0 0 0 0 0 0 0 0 0 0 0 0 0 0 0 0 0
3 3 3 3 6 6 6 3 3 3 3 3 3 0 0 0 0 0 0 0 0 0 0 0 0 0 0 0 0 0 0 0 0 0 0 0 0 0 0 0 0 0 0
3 3 3 3 3 6 6 6 6 3 3 3 3 3 3 3 0 0 0 0 0 0 0 0 0 0 0 0 0 0 0 0 0 0 0 0 0 0 0 3 0 0 0
3 3 3 3 3 3 6 6 6 3 3 3 3 3 3 3 0 0 0 0 0 0 0 0 0 0 0 0 0 0 0 0 0 0 0 0 0 0 0 0 0 0 0
3 3 3 3 3 3 3 6 3 3 3 3 3 3 3 3 3 3 0 0 0 0 0 0 0 0 0 0 0 0 0 0 0 0 0 0 0 0 0 0 0 0 0
3 3 3 3 3 3 3 3 3 3 3 3 3 3 3 3 3 0 0 0 0 0 0 0 0 0 0 0 0 0 0 0 0 0 0 0 0 0 0 0 0 0 0
3 3 3 3 3 3 3 3 3 3 3 3 3 3 3 3 0 0 0 0 0 0 0 0 0 0 0 0 0 0 0 0 0 0 0 0 0 0 0 0 0 0 0
0 3 3 3 3 3 3 3 3 3 3 3 3 3 3 3 0 0 0 0 0 0 0 0 0 0 0 0 0 0 0 0 0 0 0 0 0 0 0 0 0 0 0
0 3 3 3 3 3 3 3 3 3 3 3 3 3 3 0 0 0 0 0 0 0 0 0 0 0 0 0 0 0 0 0 0 0 0 0 0 0 0 0 0 0 0
0 0 3 3 3 3 3 0 0 0 0 0 0 0 0 0 0 0 0 0 0 0 0 0 0 0 0 0 0 0 0 0 0 0 0 0 0 0 0 0 0 0 0
0 0 3 3 3 0 0 0 0 0 0 0 0 0 0 0 0 0 0 0 0 0 0 0 0 0 0 0 0 0 0 0 0 0 0 0 0 0 0 0 0 0 0
0 0 0 0 0 0 0 0 0 0 0 0 0 0 0 0 0 0 0 0 0 0 0 0 0 0 0 0 0 0 0 0 0 0 0 0 0 0 0 0 0 0 0
0 0 0 0 0 0 0 0 0 0 0 0 0 0 0 0 0 0 0 0 0 0 0 0 0 0 0 0 0 0 0 0 0 0 0 0 0 0 0 0 0 0 0
0 0 0 0 0 0 0 0 0 0 0 0 0 0 0 0 0 0 0 0 0 0 0 0 0 0 0 0 0 0 0 0 0 0 0 0 0 0 0 0 0 0 0
0 0 0 0 0 0 0 0 0 0 0 0 0 0 0 0 0 0 0 0 0 0 0 0 0 0 0 0 0 0 0 0 0 0 0 0 0 0 0 0 0 0 0
0 0 0 0 0 0 0 0 0 0 0 0 0 0 0 0 0 0 0 0 0 0 0 0 0 0 0 0 0 0 0 0 0 0 0 0 0 0 0 0 0 0 0
0 0 0 0 0 0 0 0 0 0 0 0 0 0 0 0 0 0 0 0 0 0 0 0 0 0 0 0 0 0 0 0 0 0 0 0 0 0 0 0 0 0 0
Height
5832 5833 5833 5834 5835 5836 5836 5837 5837 5838 5839 5840 5840 5841 5841 5842 5842 5843 5843 5844 5844 5845 5845 5846 5846 5847 5847 5848 5848 5848 5848 5848 5849 5849 5849 5849 5849 5849 5849 5849 5849 5849 5849
5830 5830 5831 5832 5832 5833 5834 5835 5835 5836 5837 5837 5838 5839 5839 5840 5841 5841 5842 5842 5843 5844 5844 5844 5845 5845 5846 5846 5847 5847 5847 5847 5848 5848 5848 5848 5848 5848 5848 5848 5848 5848 5848
5827 5828 5828 5829 5830 5831 5832 5832 5833 5834 5834 5835 5836 5836 5837 5838 5839 5839 5840 5841 5841 5842 5842 5843 5843 5844 5844 5845 5845 5846 5846 5846 5846 5846 5847 5847 5847 5847 5847 5847 5847 5847 5847
5823 5824 5825 5826 5827 5828 5829 5830 5830 5831 5832 5832 5833 5834 5835 5836 5836 5837 5838 5838 5839 5840 5840 5841 5842 5842 5842 5843 5843 5844 5844 5844 5844 5845 5845 5845 5845 5846 5846 5846 5846 5846 5846
5820 5821 5822 5823 5824 5825 5826 5826 5827 5828 5829 5830 5830 5831 5832 5833 5834 5835 5835 5836 5837 5837 5838 5839 5839 5840 5840 5841 5841 5842 5842 5843 5843 5843 5843 5844 5844 5844 5844 5845 5845 5845 5845
5816 5817 5818 5819 5820 5821 5822 5823 5824 5825 5826 5826 5827 5828 5829 5830 5831 5832 5833 5833 5834 5835 5836 5836 5837 5838 5838 5839 5839 5840 5840 5841 5841 5841 5841 5842 5842 5842 5842 5843 5843 5843 5843
5812 5813 5814 5815 5816 5817 5818 5819 5821 5821 5822 5823 5824 5825 5826 5827 5828 5829 5829 5830 5831 5832 5833 5833 5834 5835 5835 5836 5837 5837 5838 5838 5838 5839 5839 5840 5840 5840 5840 5841 5841 5841 5841
5807 5808 5810 5811 5812 5813 5814 5815 5816 5817 5818 5819 5820 5821 5822 5823 5824 5825 5826 5827 5828 5828 5829 5830 5831 5832 5832 5833 5834 5834 5835 5835 5836 5836 5837 5837 5837 5837 5838 5838 5838 5839 5839
5803 5804 5805 5806 5807 5808 5809 5811 5812 5813 5814 5815 5816 5817 5818 5819 5820 5821 5822 5823 5824 5825 5826 5827 5827 5828 5829 5830 5831 5831 5832 5832 5833 5833 5834 5834 5834 5835 5835 5835 5835 5836 5836
5797 5799 5800 5801 5802 5803 5804 5806 5807 5808 5809 5810 5811 5812 5814 5815 5816 5817 5818 5819 5820 5821 5822 5823 5824 5824 5825 5826 5827 5828 5828 5829 5829 5830 5830 5831 5831 5831 5832 5832 5832 5833 5833
5792 5793 5794 5795 5797 5798 5799 5800 5801 5802 5804 5805 5806 5807 5808 5810 5811 5812 5813 5814 5815 5816 5817 5818 5819 5820 5821 5822 5823 5824 5824 5825 5825 5826 5826 5827 5827 5828 5828 5828 5829 5829 5829
5786 5787 5788 5789 5791 5792 5793 5794 5795 5797 5798 5799 5800 5801 5803 5804 5805 5806 5807 5808 5810 5811 5812 5813 5814 5815 5816 5817 5818 5819 5820 5820 5821 5822 5822 5822 5823 5823 5824 5824 5825 5825 5825
5780 5781 5782 5783 5784 5785 5787 5788 5789 5790 5792 5793 5794 5795 5797 5798 5799 5801 5802 5803 5804 5805 5806 5807 5809 5810 5811 5812 5813 5814 5815 5815 5816 5817 5817 5818 5818 5819 5819 5820 5820 5820 5821
5773 5774 5775 5776 5777 5778 5780 5781 5782 5783 5785 5786 5787 5789 5790 5792 5793 5794 5795 5796 5798 5799 5800 5801 5802 5804 5805 5806 5807 5808 5809 5810 5810 5811 5812 5812 5813 5814 5814 5814 5815 5815 5816
5765 5767 5768 5769 5770 5771 5772 5773 5774 5776 5777 5779 5780 5782 5783 5785 5786 5787 5788 5789 5791 5792 5793 5794 5795 5797 5798 5799 5800 5801 5802 5803 5804 5805 5806 5807 5807 5808 5808 5809 5809 5810 5810
5757 5759 5760 5761 5762 5763 5764 5765 5767 5768 5769 5771 5773 5774 5775 5777 5778 5780 5781 5781 5783 5784 5785 5786 5788 5789 5790 5792 5793 5794 5795 5796 5797 5798 5799 5800 5801 5801 5802 5802 5803 5804 5804
5749 5750 5752 5753 5754 5755 5756 5757 5758 5760 5761 5763 5765 5766 5768 5769 5770 5771 5772 5773 5774 5775 5777 5778 5779 5780 5782 5783 5784 5786 5787 5788 5789 5790 5791 5792 5793 5794 5795 5796 5796 5797 5798
5740 5742 5743 5744 5745 5747 5748 5749 5750 5751 5752 5754 5756 5757 5759 5760 5761 5762 5763 5764 5765 5766 5767 5768 5770 5771 5772 5773 5775 5776 5778 5779 5781 5782 5783 5784 5785 5787 5787 5788 5789 5790 5790
5731 5732 5734 5735 5736 5737 5738 5739 5740 5742 5743 5745 5746 5748 5749 5750 5751 5752 5753 5754 5755 5756 5757 5758 5760 5761 5762 5763 5764 5766 5768 5769 5771 5772 5774 5775 5777 5778 5779 5780 5781 5782 5782
5721 5723 5724 5725 5727 5728 5729 5730 5731 5732 5733 5735 5736 5737 5738 5739 5740 5741 5742 5743 5744 5746 5747 5748 5749 5750 5751 5752 5754 5755 5757 5759 5761 5762 5764 5766 5767 5769 5770 5771 5772 5773 5774
5710 5712 5714 5715 5717 5718 5718 5719 5721 5722 5723 5724 5725 5726 5727 5728 5729 5730 5731 5732 5733 5735 5736 5737 5738 5739 5740 5741 5743 5745 5746 5748 5750 5752 5753 5755 5757 5759 5760 5761 5762 5763 5764
5699 5701 5703 5704 5706 5707 5708 5709 5710 5711 5712 5713 5714 5715 5716 5717 5718 5719 5720 5721 5722 5723 5724 5725 5726 5728 5729 5730 5732 5733 5735 5738 5739 5741 5743 5744 5746 5748 5749 5751 5752 5753 5754
5688 5690 5691 5693 5694 5696 5696 5697 5699 5699 5700 5701 5702 5703 5704 5705 5705 5707 5707 5708 5710 5711 5712 5713 5715 5716 5717 5719 5720 5722 5724 5726 5728 5730 5732 5734 5735 5737 5739 5740 5741 5743 5744
5676 5677 5679 5681 5682 5684 5685 5686 5687 5688 5689 5690 5690 5691 5691 5692 5692 5693 5694 5695 5697 5698 5699 5701 5702 5704 5705 5707 5708 5710 5712 5714 5716 5719 5721 5722 5724 5726 5727 5729 5730 5732 5733
5664 5665 5667 5668 5670 5671 5672 5674 5675 5675 5676 5677 5677 5678 5678 5679 5679 5680 5681 5682 5683 5684 5686 5687 5689 5691 5693 5695 5697 5698 5700 5702 5704 5706 5709 5710 5712 5713 5715 5717 5718 5720 5721
5652 5653 5655 5656 5657 5658 5660 5661 5662 5663 5663 5664 5664 5665 5665 5666 5666 5667 5668 5669 5670 5671 5672 5674 5676 5679 5681 5683 5685 5686 5688 5690 5692 5693 5696 5698 5700 5701 5703 5705 5706 5708 5709
Wind_Speed
13 13 12 12 11 12 12 11 11 11 11 11 11 10 10 10 10 10 9 9 9 9 9 8 8 7 7 6 5 5 5 5 4 4 4 3 3 3 3 3 3 3 2
15 14 13 13 13 13 13 13 12 12 12 12 12 11 11 11 11 11 10 9 9 10 10 9 8 8 8 7 7 7 7 6 6 5 5 5 5 4 4 4 4 4 4
17 16 16 15 15 14 14 13 13 13 13 13 13 13 12 12 12 12 12 11 10 10 10 10 10 9 8 8 8 7 7 7 7 7 6 6 6 6 5 5 5 5 5
18 18 17 17 16 16 16 15 15 15 15 14 14 14 14 14 14 14 14 13 12 12 12 11 11 11 10 9 8 8 8 8 8 8 8 8 7 7 7 7 7 7 6
18 19 18 18 18 18 17 17 16 16 16 16 15 15 15 15 15 15 15 14 14 13 13 13 13 12 11 11 10 9 9 9 9 9 9 9 9 9 9 9 8 8 8
20 20 20 20 19 19 19 18 18 18 18 18 17 16 16 16 16 16 16 15 15 15 14 14 14 14 13 12 12 11 11 11 10 10 10 10 10 10 10 11 10 10 9
21 22 21 21 21 21 21 20 20 19 19 19 19 18 18 17 17 18 18 17 17 17 16 16 15 14 14 14 13 13 12 12 12 12 11 11 11 11 11 12 12 12 11
23 23 23 23 22 22 22 22 22 22 21 21 21 21 19 19 19 19 19 19 19 18 18 17 17 16 16 15 15 14 14 13 13 13 13 13 13 13 13 14 14 14 13
24 25 24 24 24 24 23 23 23 23 23 23 22 23 22 21 21 21 21 21 20 19 19 19 19 18 17 17 17 16 16 15 15 15 14 14 14 14 15 15 15 15 15
25 25 25 25 25 25 25 25 25 25 24 25 24 24 24 23 23 23 23 23 22 22 21 21 20 19 19 19 19 18 18 17 17 17 16 16 16 16 16 16 16 16 16
26 26 26 26 26 26 26 26 26 26 26 26 26 25 26 25 25 24 24 24 24 24 24 23 23 23 22 22 21 21 20 20 19 19 18 18 18 18 18 18 18 18 18
26 26 27 27 27 28 28 28 28 28 28 28 27 27 27 27 27 27 26 26 26 26 26 25 25 25 25 24 24 23 23 22 22 21 21 20 20 20 19 19 20 20 20
28 27 28 28 28 29 29 29 30 30 30 29 29 28 29 29 29 29 28 28 28 28 28 28 28 27 27 26 26 25 25 25 24 24 23 23 22 22 22 21 22 22 22
29 29 29 30 30 31 31 31 31 31 31 31 30 30 30 30 31 31 31 30 30 30 30 30 30 30 29 29 28 28 27 27 27 26 26 25 25 24 24 24 24 24 24
31 31 31 31 32 32 33 33 33 33 33 33 32 32 31 31 32 32 33 33 32 32 32 33 33 32 32 31 31 31 30 30 29 29 28 28 27 27 26 26 26 25 26
33 32 32 32 33 33 34 34 35 35 35 36 35 35 34 34 34 34 35 35 35 34 34 34 34 34 34 34 34 34 33 33 32 32 31 31 30 30 29 28 28 28 28
35 35 34 34 34 35 35 36 36 37 37 37 37 37 37 36 36 37 37 38 38 37 37 37 37 37 37 37 37 36 36 35 35 34 34 33 33 32 31 31 31 30 30
37 37 37 36 36 36 37 38 38 38 39 39 39 39 39 39 39 39 39 40 40 40 40 40 40 40 39 39 39 39 38 38 37 37 37 36 36 35 34 33 33 33 32
39 39 39 38 38 38 38 39 40 41 41 41 41 41 41 40 40 41 41 41 41 41 41 41 40 40 40 40 40 41 41 40 39 40 39 39 38 38 37 36 36 35 35
41 41 41 40 40 40 40 40 41 41 42 42 43 43 42 42 42 42 42 42 42 42 41 41 42 42 41 41 41 41 42 42 41 41 41 40 40 40 39 38 38 38 37
42 42 42 42 42 41 41 41 42 42 42 43 44 45 44 44 44 44 43 44 43 43 42 42 43 43 43 43 42 42 42 42 42 42 42 42 42 42 41 41 41 40 40
43 43 43 43 43 43 43 43 43 43 43 44 45 46 46 45 45 45 44 44 45 45 45 44 44 44 44 44 43 43 43 43 43 43 43 43 43 43 43 43 43 43 42
43 44 44 44 44 44 44 44 44 45 45 45 46 46 47 48 48 47 47 46 46 46 46 46 45 45 45 45 45 44 44 44 44 44 44 44 44 44 44 44 44 44 44
44 44 45 45 45 45 45 45 46 47 47 46 47 47 48 49 48 49 49 49 49 49 48 47 47 47 46 46 46 46 46 46 46 45 46 46 45 45 45 45 45 46 46
44 44 45 46 45 46 46 46 47 48 48 47 48 48 48 49 49 49 49 50 50 50 50 49 48 47 47 47 47 47 47 47 47 47 47 47 47 47 47 47 46 47 47
43 44 45 46 47 47 47 48 48 48 48 48 48 48 48 48 49 49 49 48 49 49 50 50 49 49 49 49 48 48 48 48 48 49 48 48 48 48 49 48 48 48 48
Wind_Direction
235 236 235 236 233 231 231 229 230 231 233 232 230 231 231 229 227 226 225 225 222 218 221 226 226 226 227 231 238 239 234 235 239 237 243 245 236 235 234 227 223 226 227
237 237 237 238 235 233 233 233 233 234 236 234 232 230 230 230 230 229 227 226 227 226 226 228 229 228 231 234 238 244 242 240 241 240 240 244 245 244 239 235 232 229 230
237 238 239 240 238 236 236 236 236 235 237 236 233 231 231 231 232 233 233 231 231 230 230 231 234 235 235 236 239 244 245 242 240 240 241 244 245 246 244 239 236 236 237
239 239 241 242 241 239 238 239 239 238 237 238 235 233 233 234 235 236 236 235 234 235 236 236 236 238 239 239 241 244 245 245 243 242 245 248 247 247 246 243 240 241 240
241 241 242 242 242 241 241 242 241 242 239 239 239 237 237 238 238 238 237 237 237 238 240 241 240 240 241 242 243 245 247 247 246 246 247 249 249 247 247 246 245 244 244
244 244 244 243 243 242 242 243 242 244 243 240 240 240 240 239 238 237 236 237 237 239 241 242 243 242 242 243 243 246 249 251 251 251 251 251 251 250 250 250 251 251 251
245 245 244 244 244 243 243 243 243 245 245 243 241 241 242 241 239 238 237 238 239 240 242 243 243 244 244 244 244 246 249 250 250 250 252 254 254 254 254 254 254 255 255
245 245 245 245 244 243 243 244 245 245 245 244 244 243 242 242 241 240 240 241 242 243 243 243 244 246 247 246 246 247 248 249 251 251 253 254 255 256 257 258 257 257 256
245 246 246 245 245 244 244 246 246 246 245 245 245 245 244 244 242 241 241 242 242 243 244 244 244 245 247 248 248 248 248 250 252 254 254 255 257 257 258 259 258 257 257
247 246 246 246 246 246 245 246 246 245 246 246 246 245 245 245 245 244 243 244 244 245 246 244 244 246 247 249 249 249 250 251 253 255 256 257 258 258 258 257 257 258 258
248 248 247 247 247 247 247 247 247 247 248 248 248 246 247 246 247 247 246 246 246 246 247 246 247 247 248 250 251 251 252 253 254 256 257 257 257 258 258 257 256 258 259
250 250 248 248 248 248 248 248 248 248 248 248 247 248 248 248 248 248 249 249 247 247 248 248 249 250 250 252 253 253 253 254 255 256 257 257 257 258 259 259 258 259 260
250 250 248 248 248 249 249 249 249 249 249 248 249 249 249 250 250 250 251 251 251 250 250 250 251 252 251 252 254 254 254 255 256 257 258 257 257 258 258 259 258 259 260
250 250 249 249 248 248 249 249 249 249 249 249 250 250 251 251 251 252 252 252 252 252 252 252 252 253 253 253 254 254 254 255 256 258 258 258 258 258 258 258 259 259 259
250 251 251 250 250 249 249 250 250 250 250 250 249 251 252 252 252 252 253 253 253 253 253 253 253 254 254 254 254 254 255 255 256 257 258 259 259 259 258 258 259 259 259
251 251 252 253 252 252 252 252 252 252 252 252 251 252 252 253 254 254 254 254 254 254 254 254 254 254 254 254 254 255 256 256 257 257 258 259 259 259 259 259 259 259 259
252 252 253 254 253 254 254 254 253 253 253 253 252 252 253 254 254 255 255 255 256 255 255 255 256 255 255 255 255 255 255 256 257 257 258 259 260 260 259 259 259 259 259
252 252 253 253 254 255 255 255 254 254 253 253 253 254 255 255 255 256 256 256 257 257 257 257 257 256 256 256 255 255 255 255 256 257 258 258 259 260 260 259 259 259 259
252 253 254 254 254 255 255 255 255 255 254 254 255 255 255 256 256 257 256 257 257 258 258 257 256 256 256 256 255 255 255 255 256 256 257 258 259 259 260 260 259 259 259
252 253 254 254 254 255 255 256 256 256 255 254 255 256 256 256 257 258 258 257 257 258 258 257 257 257 257 256 256 256 255 255 256 256 257 257 258 259 260 260 260 259 259
253 253 254 255 255 256 256 256 256 256 256 255 255 255 255 256 257 258 257 257 258 258 257 257 258 257 257 257 256 256 256 256 256 256 257 258 258 259 260 260 260 259 259
253 254 254 255 256 256 257 256 256 256 256 256 255 256 257 257 256 257 257 257 257 257 258 258 257 257 257 256 257 257 257 257 257 257 257 258 259 259 260 260 260 260 259
254 254 254 255 255 255 256 256 256 256 257 257 257 257 257 257 258 258 258 259 259 258 258 258 257 257 257 257 257 258 258 258 258 257 257 258 259 259 260 260 260 260 260
254 254 254 255 256 255 256 256 256 257 257 258 258 257 257 258 258 258 259 259 259 258 258 258 258 258 257 257 257 258 258 259 258 257 257 258 258 258 259 260 260 260 261
255 255 255 254 255 255 255 256 256 257 258 258 259 259 258 258 258 259 259 260 259 259 258 258 258 257 257 257 257 258 259 259 258 257 256 257 258 258 259 259 259 260 260
257 256 256 255 255 256 256 256 257 257 258 258 259 259 259 259 259 260 260 259 259 259 258 258 258 257 258 258 258 259 259 259 259 258 257 257 258 258 259 259 259 260 260